FOX-1CLIFF (AO-95)

Last updated on Sat Nov 15 2025 00:03:10 GMT+0000 (Coordinated Universal Time)

1 43770U 18099N 25318.44578125 .00015192 00000+0 68693-3 0 9995 2 43770 97.4719 14.9515 0010406 30.6285 329.5556 15.20975279380519
UTC large
Height (km)
Speed (km/s)
/
Latitude / Longitude
Inclination (degrees)
Orbital Period (minutes)
Azimuth
Elevation
Range (km)
Doppler Factor

Next 0 passes for location: London (51.5072 / 0.1276)

Sorry there are no passes over London.